Location: Tucson
(32.2217°N, 110.9265°W)
Time: 14:50:48
(UTC-07:00)

A-11 Canister half - Pass Details

Date: 26 October 2021
Orbit: 1516 x 1684 km, 47.2° (Epoch: 04 December)

Event Time Altitude Azimuth Distance (km) Brightness Sun altitude
Rises 18:49:12 0° 263° (W) 4,929 13.6 -15.5°
Reaches altitude 10° 18:52:39 10° 270° (W) 3,935 12.5 -16.2°
Maximum altitude 19:02:07 43° 339° (NNW) 2,191 9.9 -18.2°
Enters shadow 19:10:04 15° 45° (NE) 3,482 10.4 -19.9°
